Weather in Mahibadhoo

Maldives     3°45′27″N   72°58′06″E
temp.,
°C
wind,
m/s
gust,
m/s
humid.,
%
clouds,
%
prec.,
mm/h
press.,
hPa
HPBL,
m
15 august, mon
mon1523:00+27nnw337879 0.0 1011558
02:00+27n447999 0.0 1009591
05:00+27n5580100 0.0 1009602
08:00+27nne4580100 0.0 1011587
11:00+27nne458033 0.0 1011639
14:00+27nne34776 0.0 1010753
17:00+27nne23758 0.0 1009739
20:00+27ne227653 0.0 1011602
16 august, tue
tue1623:00+27e22788 0.0 1012531
02:00+27ese227986 0.0 1010541
05:00+27ese22796 0.0 1009535
08:00+27ese237863 0.0 1011577
11:00+27e33770 0.0 1011638
14:00+27ese337510 0.0 1009792
17:00+28ese3473100 0.0 1009798
20:00+27se44755 0.0 1011745
17 august, wed
wed1723:00+27se447583 0.0 1012814
02:00+27ese337499 0.0 1010731
05:00+27ese23755 0.0 1010677
08:00+27e237522 0.0 1012662
11:00+27se2273100 0.0 1011431
14:00+27sse1170100 0.0 1009457
17:00+28e116777 0.0 1009472
20:00+28ese116971 0.0 1011383
18 august, thu
thu1823:00+27se116972 0.0 1011239
02:00+27ese117074 0.0 1009271
05:00+27nnw117140 0.0 1009329
08:00+27n227192 0.0 1011419
11:00+27nnw227160 0.0 1011460
14:00+27nw116976 0.0 1009529
17:00+27nw226879 0.0 1010605
20:00+27w1168100 0.0 1011468
19 august, fri
fri1923:00+27wnw1169100 0.0 1012342
02:00+27wnw117099 0.0 1010327
05:00+27nnw227195 0.0 1010372
08:00+27n3372100 0.0 1011456
11:00+27nnw337197 0.0 1011507
14:00+27nw347015 0.0 1009634
17:00+27nw447082 0.0 1009743
20:00+27nw337260 0.0 1011686